TimeCST,TemperatureF,Dew PointF,Humidity,Sea Level PressureIn,VisibilityMPH,Wind Direction,Wind SpeedMPH,Gust SpeedMPH,PrecipitationIn,Events,Conditions,WindDirDegrees,DateUTC
12:52 AM,53.1,43.0,69,30.30,10.0,NNE,16.1,20.7,N/A,,Clear,20,2013-12-23 06:52:00
1:52 AM,51.1,39.0,63,30.31,10.0,NNE,13.8,-,N/A,,Clear,20,2013-12-23 07:52:00
2:52 AM,48.9,37.9,66,30.30,10.0,North,15.0,-,N/A,,Clear,10,2013-12-23 08:52:00
3:52 AM,48.0,37.9,68,30.32,10.0,North,12.7,-,N/A,,Clear,350,2013-12-23 09:52:00
4:52 AM,46.0,36.0,68,30.35,10.0,NNW,10.4,-,N/A,,Clear,340,2013-12-23 10:52:00
5:52 AM,46.0,35.1,66,30.36,10.0,NNW,11.5,-,N/A,,Mostly Cloudy,330,2013-12-23 11:52:00
6:52 AM,45.0,34.0,65,30.39,10.0,NNW,18.4,-,N/A,,Overcast,330,2013-12-23 12:52:00
7:52 AM,45.0,32.0,60,30.40,10.0,North,17.3,-,N/A,,Mostly Cloudy,350,2013-12-23 13:52:00
8:52 AM,46.9,30.9,54,30.44,10.0,North,13.8,23.0,N/A,,Partly Cloudy,350,2013-12-23 14:52:00
9:52 AM,50.0,30.9,48,30.48,10.0,NNW,13.8,-,N/A,,Partly Cloudy,330,2013-12-23 15:52:00
10:52 AM,52.0,28.9,41,30.48,10.0,NNW,11.5,-,N/A,,Clear,340,2013-12-23 16:52:00
11:52 AM,55.0,28.0,35,30.48,10.0,NNW,11.5,-,N/A,,Clear,340,2013-12-23 17:52:00
12:52 PM,55.9,26.1,32,30.45,10.0,NNE,10.4,-,N/A,,Clear,20,2013-12-23 18:52:00
1:52 PM,59.0,25.0,27,30.42,10.0,North,10.4,-,N/A,,Clear,350,2013-12-23 19:52:00
2:52 PM,62.1,24.1,23,30.40,10.0,North,8.1,-,N/A,,Clear,360,2013-12-23 20:52:00
3:52 PM,63.0,24.1,23,30.41,10.0,North,11.5,-,N/A,,Clear,10,2013-12-23 21:52:00
4:52 PM,59.0,26.1,28,30.42,10.0,North,6.9,-,N/A,,Clear,10,2013-12-23 22:52:00
5:52 PM,52.0,33.1,49,30.44,10.0,East,8.1,-,N/A,,Clear,80,2013-12-23 23:52:00
6:52 PM,51.1,34.0,52,30.46,10.0,NE,8.1,-,N/A,,Clear,50,2013-12-24 00:52:00
7:52 PM,48.9,36.0,61,30.48,10.0,NE,8.1,-,N/A,,Clear,50,2013-12-24 01:52:00
8:52 PM,48.0,37.0,66,30.49,10.0,NE,6.9,-,N/A,,Clear,40,2013-12-24 02:52:00
9:52 PM,46.9,37.9,71,30.51,10.0,NE,6.9,-,N/A,,Clear,40,2013-12-24 03:52:00
10:52 PM,45.0,37.0,74,30.51,10.0,NNE,5.8,-,N/A,,Clear,20,2013-12-24 04:52:00
11:52 PM,45.0,37.0,74,30.51,10.0,North,6.9,-,N/A,,Clear,10,2013-12-24 05:52:00